Latest Weather Observations for Cape Bruny AWS

IDT60801

Issued at 12:04 pm EDT Sunday 7 February 2016 (issued every 30 minutes, with the page automatically refreshed every 10 minutes)

About weather observations | Map of weather stations | Latest weather observations for TAS | Other Formats
Station Details ID: 094198 Name: CAPE BRUNY (CAPE BRUNY) Lat: -43.49 Lon: 147.14 Height: 59.7 m
Data from the previous 72 hours. | See also: Recent months at Cape Bruny AWS
Date/Time
EDT
Temp
°C
App
Temp
°C
Dew
Point
Rel
Hum
%
Delta-T
°C
Wind Press
QNH
hPa
Press
MSL
hPa
Rain
since 9 am
mm
Dir
 
Spd
km/h
Gust
km/h
Spd
kts
Gust
kts
07/11:30am 20.5 19.0 13.2 63 4.2 S 13 17 7 9 1018.3 1018.3 0.0
07/11:00am 20.3 19.3 13.5 65 3.9 S 11 15 6 8 1018.4 1018.4 0.0
07/10:30am 20.0 19.3 13.2 65 3.9 SSW 9 13 5 7 1018.5 1018.5 0.0
07/10:00am 19.5 19.0 12.8 65 3.8 SSW 7 11 4 6 1018.4 1018.4 0.0
07/09:30am 19.9 19.7 13.6 67 3.6 SSW 7 11 4 6 1018.6 1018.6 0.0
07/09:00am 19.4 18.8 14.6 74 2.8 S 11 15 6 8 1018.5 1018.5 0.0
07/08:30am 17.3 16.9 14.2 82 1.8 SSW 9 13 5 7 1018.4 1018.4 0.0
07/08:00am 16.9 16.6 14.4 85 1.4 SSW 9 17 5 9 1018.3 1018.3 0.0
07/07:30am 16.5 15.3 14.0 85 1.4 SSW 13 20 7 11 1018.1 1018.1 0.0
07/07:00am 16.5 14.5 14.0 85 1.4 S 17 30 9 16 1017.8 1017.8 0.0
07/06:30am 16.5 14.0 14.0 85 1.4 SW 20 30 11 16 1017.7 1017.7 0.0
07/06:00am 16.4 14.2 14.8 90 0.9 SW 20 28 11 15 1017.4 1017.4 0.0
07/05:30am 16.7 14.2 15.2 91 0.9 WSW 22 30 12 16 1017.0 1017.0 0.0
07/05:00am 16.3 15.4 14.8 91 0.9 W 13 15 7 8 1016.7 1016.7 0.0
07/04:30am 15.9 14.8 14.4 91 0.9 W 13 15 7 8 1016.6 1016.6 0.0
07/04:00am 15.0 14.4 13.4 90 0.9 WNW 9 9 5 5 1016.3 1016.3 0.0
07/03:30am 15.5 14.3 13.9 90 0.9 W 13 15 7 8 1016.6 1016.6 0.0
07/03:00am 15.1 14.5 13.5 90 0.9 NW 9 9 5 5 1016.5 1016.5 0.0
07/02:30am 14.9 14.5 13.1 89 1.0 N 7 9 4 5 1016.6 1016.6 0.0
07/02:00am 15.7 15.6 13.9 89 1.0 N 7 9 4 5 1016.7 1016.7 0.0
07/01:30am 16.1 14.9 14.1 88 1.1 W 13 17 7 9 1017.1 1017.1 0.0
07/01:00am 16.4 15.0 14.4 88 1.1 W 15 17 8 9 1017.3 1017.3 0.0
07/12:30am 16.1 15.6 13.8 86 1.3 N 9 11 5 6 1017.3 1017.3 0.0
07/12:00am 16.7 16.9 14.2 85 1.4 ENE 6 9 3 5 1017.5 1017.5 0.0
 
Date/Time
EDT
Temp
°C
App
Temp
°C
Dew
Point
Rel
Hum
%
Delta-T
°C
Wind Press
QNH
hPa
Press
MSL
hPa
Rain
since 9 am
mm
Dir
 
Spd
km/h
Gust
km/h
Spd
kts
Gust
kts
06/11:30pm 17.7 18.9 15.0 84 1.6 S 2 7 1 4 1017.7 1017.7 0.0
06/11:00pm 17.7 18.1 14.8 83 1.7 SE 6 7 3 4 1018.0 1018.0 0.0
06/10:30pm 17.8 19.0 14.9 83 1.7 SE 2 9 1 5 1018.1 1018.1 0.0
06/10:00pm 17.5 17.7 14.8 84 1.6 ESE 7 11 4 6 1018.2 1018.2 0.0
06/09:30pm 17.6 16.3 14.9 84 1.6 ESE 15 20 8 11 1018.0 1018.0 0.0
06/09:00pm 17.4 15.6 14.5 83 1.7 ESE 17 22 9 12 1017.8 1017.8 0.0
06/08:30pm 17.4 15.5 14.3 82 1.8 ESE 17 20 9 11 1018.0 1018.0 0.0
06/08:00pm 17.2 15.2 13.9 81 1.9 ESE 17 22 9 12 1018.0 1018.0 0.0
06/07:30pm 17.5 14.8 13.6 78 2.2 SE 20 26 11 14 1018.0 1018.0 0.0
06/07:00pm 17.6 16.2 13.5 77 2.3 S 13 20 7 11 1018.2 1018.2 0.0
06/06:30pm 18.0 16.3 13.7 76 2.5 SE 15 20 8 11 1018.0 1018.0 0.0
06/06:00pm 18.3 16.3 13.8 75 2.6 S 17 20 9 11 1018.2 1018.2 0.0
06/05:30pm 18.6 16.5 13.5 72 2.9 S 17 22 9 12 1018.4 1018.4 0.0
06/05:00pm 19.5 17.4 13.7 69 3.3 S 17 22 9 12 1018.5 1018.5 0.0
06/04:30pm 20.1 18.9 14.0 68 3.5 SSE 13 20 7 11 1018.7 1018.7 0.0
06/04:00pm 19.9 18.2 13.6 67 3.6 S 15 20 8 11 1018.9 1018.9 0.0
06/03:30pm 20.6 19.0 14.0 66 3.8 SSE 15 20 8 11 1019.4 1019.3 0.0
06/03:00pm 20.1 18.5 13.8 67 3.6 S 15 19 8 10 1019.7 1019.6 0.0
06/02:30pm 19.5 18.0 14.1 71 3.1 S 15 20 8 11 1020.1 1020.0 0.0
06/02:00pm 17.8 15.9 12.9 73 2.7 S 15 19 8 10 1020.5 1020.4 0.0
06/01:30pm 18.5 16.2 13.1 71 3.1 S 17 20 9 11 1020.6 1020.5 0.0
06/01:00pm 18.6 16.2 13.9 74 2.7 S 19 24 10 13 1020.7 1020.6 0.0
06/12:30pm 18.7 16.7 14.0 74 2.7 S 17 24 9 13 1020.9 1020.8 0.0
06/12:00pm 17.5 15.2 13.0 75 2.5 SSW 17 35 9 19 1021.1 1021.0 0.0
06/11:30am 18.4 15.9 13.5 73 2.8 SSW 19 28 10 15 1021.2 1021.1 0.0
06/11:00am 18.8 16.3 13.6 72 3.0 SSW 19 30 10 16 1021.2 1021.1 0.0
06/10:30am 18.8 16.3 14.1 74 2.7 S 20 28 11 15 1021.2 1021.1 0.0
06/10:00am 18.5 16.4 13.6 73 2.8 S 17 20 9 11 1021.1 1021.0 0.0
06/09:30am 18.3 16.6 13.6 74 2.7 SSW 15 20 8 11 1021.1 1021.0 0.0
06/09:00am 18.1 17.2 13.6 75 2.6 S 11 13 6 7 1021.1 1021.0 0.0
06/08:30am 17.0 16.3 13.3 79 2.1 W 9 13 5 7 1021.0 1020.9 0.0
06/08:00am 16.6 16.0 13.5 82 1.7 W 9 11 5 6 1020.8 1020.7 0.0
06/07:30am 16.4 15.4 13.5 83 1.6 WNW 11 15 6 8 1020.4 1020.3 0.0
06/07:00am 15.8 13.6 13.3 85 1.4 N 17 24 9 13 1020.1 1020.0 0.0
06/06:30am 15.5 12.7 13.2 86 1.3 N 20 30 11 16 1019.7 1019.6 0.0
06/06:00am 15.3 13.0 13.0 86 1.3 N 17 22 9 12 1019.3 1019.2 0.0
06/05:30am 15.2 13.3 12.9 86 1.3 N 15 20 8 11 1019.3 1019.2 0.0
06/05:00am 15.1 13.4 12.6 85 1.4 NNE 13 17 7 9 1019.4 1019.3 0.0
06/04:30am 15.2 13.5 12.5 84 1.5 NNE 13 17 7 9 1019.5 1019.4 0.0
06/04:00am 15.3 13.5 12.2 82 1.7 N 13 20 7 11 1019.8 1019.7 0.0
06/03:30am 15.2 13.7 12.0 81 1.7 N 11 17 6 9 1020.2 1020.1 0.0
06/03:00am 15.2 13.7 11.8 80 1.8 N 11 20 6 11 1020.7 1020.6 0.0
06/02:30am 15.6 13.8 12.2 80 1.9 N 13 20 7 11 1021.3 1021.2 0.0
06/02:00am 15.6 14.2 12.2 80 1.9 NNE 11 13 6 7 1021.7 1021.6 0.0
06/01:30am 15.2 13.4 12.0 81 1.7 N 13 19 7 10 1022.1 1022.0 0.0
06/01:00am 14.5 13.7 10.9 79 1.9 NNE 6 9 3 5 1022.6 1022.5 0.0
06/12:30am 14.6 13.7 11.4 81 1.7 NNE 7 9 4 5 1023.0 1022.9 0.0
06/12:00am 14.4 13.5 11.4 82 1.6 NNE 7 9 4 5 1023.2 1023.1 0.0
 
Date/Time
EDT
Temp
°C
App
Temp
°C
Dew
Point
Rel
Hum
%
Delta-T
°C
Wind Press
QNH
hPa
Press
MSL
hPa
Rain
since 9 am
mm
Dir
 
Spd
km/h
Gust
km/h
Spd
kts
Gust
kts
05/11:30pm 13.7 12.6 10.7 82 1.6 NE 7 9 4 5 1023.5 1023.4 0.0
05/11:00pm 13.1 11.4 9.7 80 1.7 NE 9 9 5 5 1023.8 1023.7 0.0
05/10:30pm 13.5 12.4 9.9 79 1.9 NE 6 9 3 5 1023.9 1023.8 0.0
05/10:00pm 14.2 14.3 10.0 76 2.2 CALM 0 0 0 0 1023.9 1023.8 0.0
05/09:30pm 14.6 14.7 10.0 74 2.4 CALM 0 0 0 0 1024.0 1023.9 0.0
05/09:00pm 14.9 13.6 9.9 72 2.6 SSE 7 9 4 5 1023.7 1023.6 0.0
05/08:30pm 15.6 14.1 10.4 71 2.7 SSE 9 17 5 9 1023.5 1023.4 0.0
05/08:00pm 16.3 14.4 10.6 69 3.0 S 11 15 6 8 1023.4 1023.3 0.0
05/07:30pm 16.9 14.8 11.0 68 3.2 S 13 17 7 9 1023.1 1023.0 0.0
05/07:00pm 17.2 15.0 10.8 66 3.4 S 13 19 7 10 1022.9 1022.8 0.0
05/06:30pm 17.8 15.3 11.1 65 3.6 S 15 19 8 10 1022.8 1022.7 0.0
05/06:00pm 18.1 15.3 11.4 65 3.6 S 17 22 9 12 1022.7 1022.6 0.0
05/05:30pm 18.2 14.9 10.8 62 4.0 S 19 24 10 13 1022.8 1022.7 0.0
05/05:00pm 18.3 15.4 10.9 62 4.0 S 17 24 9 13 1022.9 1022.8 0.0
05/04:30pm 18.3 15.2 10.4 60 4.2 S 17 24 9 13 1022.9 1022.8 0.0
05/04:00pm 18.7 15.5 11.3 62 4.0 S 19 24 10 13 1022.9 1022.8 0.0
05/03:30pm 18.6 15.1 10.9 61 4.2 SSW 20 28 11 15 1023.0 1022.9 0.0
05/03:00pm 19.2 15.9 11.5 61 4.2 S 20 30 11 16 1023.0 1022.9 0.0
05/02:30pm 19.2 15.7 11.0 59 4.5 SSW 20 28 11 15 1023.2 1023.1 0.0
05/02:00pm 18.9 15.4 11.0 60 4.3 SSW 20 32 11 17 1023.1 1023.0 0.0
05/01:30pm 19.8 17.0 11.3 58 4.7 S 17 22 9 12 1023.0 1022.9 0.0
05/01:00pm 19.2 16.6 10.7 58 4.6 S 15 20 8 11 1023.4 1023.3 0.0
05/12:30pm 19.0 16.7 10.6 58 4.5 S 13 17 7 9 1023.5 1023.4 0.0
05/12:00pm 19.1 17.0 11.2 60 4.3 S 13 17 7 9 1023.7 1023.6 0.0
05/11:30am 18.8 16.8 10.1 57 4.7 SSW 11 15 6 8 1024.0 1023.9 0.0
05/11:00am 19.1 17.3 10.9 59 4.4 SW 11 17 6 9 1024.1 1024.0 0.0
05/10:30am 18.2 16.7 10.6 61 4.1 W 9 13 5 7 1024.1 1024.0 0.0
05/10:00am 17.5 15.5 10.1 62 3.9 WNW 11 13 6 7 1023.9 1023.8 0.0
05/09:30am 16.7 14.6 9.9 64 3.6 W 11 15 6 8 1023.8 1023.7 0.0
05/09:00am 16.2 13.7 9.8 66 3.3 W 13 17 7 9 1023.9 1023.8 0.0
05/08:30am 15.5 13.1 10.1 70 2.8 W 13 15 7 8 1023.8 1023.7 0.0
05/08:00am 15.1 12.7 9.9 71 2.7 W 13 17 7 9 1023.4 1023.3 0.0
05/07:30am 14.3 11.7 9.5 73 2.5 W 13 19 7 10 1023.2 1023.1 0.0
05/07:00am 13.6 10.7 9.6 77 2.0 WNW 15 17 8 9 1023.0 1022.9 0.0
05/06:30am 13.0 10.3 9.1 77 2.0 WNW 13 17 7 9 1022.7 1022.6 0.0
05/06:00am 13.0 10.0 9.1 77 2.0 WNW 15 19 8 10 1022.3 1022.2 0.0
05/05:30am 12.9 9.9 9.2 78 1.9 WNW 15 19 8 10 1022.0 1021.9 0.0
05/05:00am 12.9 10.2 9.0 77 2.0 W 13 17 7 9 1021.7 1021.6 0.0
05/04:30am 13.8 10.5 9.5 75 2.2 W 17 20 9 11 1021.7 1021.6 0.0
05/04:00am 13.8 10.4 9.0 73 2.4 W 17 20 9 11 1021.6 1021.5 0.0
05/03:30am 14.1 10.4 9.5 74 2.4 W 19 22 10 12 1021.8 1021.7 0.0
05/03:00am 13.7 10.3 9.0 73 2.4 W 17 22 9 12 1021.9 1021.8 0.0
05/02:30am 14.2 10.5 9.4 73 2.5 W 19 22 10 12 1022.1 1022.0 0.0
05/02:00am 14.2 10.3 9.4 73 2.5 W 20 24 11 13 1022.1 1022.0 0.0
05/01:30am 14.7 9.7 9.7 72 2.6 W 26 35 14 19 1022.3 1022.2 0.0
05/01:00am 14.7 9.0 9.7 72 2.6 WSW 30 35 16 19 - - 0.0
05/12:30am 14.5 9.4 9.3 71 2.7 WSW 26 32 14 17 1022.3 1022.2 0.0
05/12:00am 14.6 9.2 9.6 72 2.6 WSW 28 33 15 18 1022.3 1022.2 0.0
 
Date/Time
EDT
Temp
°C
App
Temp
°C
Dew
Point
Rel
Hum
%
Delta-T
°C
Wind Press
QNH
hPa
Press
MSL
hPa
Rain
since 9 am
mm
Dir
 
Spd
km/h
Gust
km/h
Spd
kts
Gust
kts
04/11:30pm 14.4 9.0 9.4 72 2.6 WSW 28 37 15 20 1022.4 1022.3 0.0
04/11:00pm 14.4 9.2 9.0 70 2.7 WSW 26 32 14 17 1022.3 1022.2 0.0
04/10:30pm 14.5 8.9 8.9 69 2.9 WSW 28 37 15 20 1022.1 1022.0 0.0
04/10:00pm 14.4 8.8 8.8 69 2.8 WSW 28 39 15 21 1022.2 1022.1 0.0
04/09:30pm 14.5 9.3 8.9 69 2.9 WSW 26 39 14 21 1022.1 1022.0 0.0
04/09:00pm 14.7 8.5 9.3 70 2.8 WSW 32 43 17 23 1021.8 1021.7 0.0
04/08:30pm 14.7 8.6 9.7 72 2.6 WSW 32 48 17 26 1021.5 1021.4 0.0
04/08:00pm 15.3 9.4 10.3 72 2.6 WSW 32 46 17 25 1021.2 1021.1 0.0
04/07:30pm 16.0 9.1 8.7 62 3.7 WSW 35 46 19 25 1020.6 1020.5 0.0
04/07:00pm 16.5 9.8 9.7 64 3.6 WSW 35 54 19 29 1020.1 1020.0 0.0
04/06:30pm 16.7 10.1 10.1 65 3.5 WSW 35 52 19 28 1019.8 1019.7 0.0
04/06:00pm 17.1 10.5 10.0 63 3.7 SW 35 56 19 30 1019.7 1019.6 0.0
04/05:30pm 17.6 11.1 10.5 63 3.8 SW 35 54 19 29 1019.7 1019.6 0.0
04/05:24pm 17.8 11.4 10.7 63 3.8 SW 35 54 19 29 1019.7 1019.6 0.0
04/05:00pm 17.7 11.3 10.8 64 3.7 SW 35 52 19 28 1019.6 1019.5 0.0
04/04:30pm 18.6 12.6 10.7 60 4.3 SW 33 46 18 25 1019.3 1019.2 0.0
04/04:00pm 18.8 12.9 10.6 59 4.4 WSW 32 48 17 26 1019.3 1019.2 0.0
04/03:30pm 18.6 12.3 10.9 61 4.2 WSW 35 50 19 27 1019.4 1019.3 0.0
04/03:07pm 18.5 11.8 9.8 57 4.6 WSW 35 54 19 29 1019.5 1019.4 0.0
04/03:00pm 18.5 11.7 10.6 60 4.3 WSW 37 50 20 27 1019.5 1019.4 0.0
04/02:30pm 18.5 12.1 10.6 60 4.3 WSW 35 56 19 30 1019.5 1019.4 0.0
04/02:24pm 18.5 12.1 10.6 60 4.3 WSW 35 56 19 30 1019.5 1019.4 0.0
04/02:00pm 18.5 11.0 9.6 56 4.7 WSW 39 50 21 27 1019.5 1019.4 0.0
04/01:30pm 18.7 11.7 9.8 56 4.7 WSW 37 48 20 26 1019.7 1019.6 0.0
04/01:00pm 18.9 12.3 9.9 56 4.8 WSW 35 46 19 25 1019.7 1019.6 0.0
04/12:30pm 18.6 12.9 9.9 57 4.6 WSW 30 44 16 24 1019.6 1019.5 0.0

Other Formats:

Comma delimited format used in spreadsheet applications
http://www.bom.gov.au/fwo/IDT60801/IDT60801.95967.axf

JavaScript Object Notation format (JSON) in row-major order
http://www.bom.gov.au/fwo/IDT60801/IDT60801.95967.json